Starlink 31940

operational
NORAD ID: 59873 Int'l Des: 2024-098 Owner: SPXS Country: US Constellation: starlink
LEOCIRCULAR

Starlink 31940について

説明を読み込み中...

リアルタイム位置

3D地球を読み込み中...

次回通過

高度履歴

Altitude vs Time

uPlot chart will show altitude changes over time

軌道要素

1 59873U 24098R 26034.55432652 -.00000559 00000-0 -10786-4 0 9999
2 59873 42.9989 103.1587 0000677 296.0957 63.9825 15.27579616 96713
Epoch: Feb 3, 2026 • Age: 17 hours

現在のステータス

高度 486.7 km
速度 7.62 km/s
衛星直下点 -17.42°S, 75.99°E
打ち上げ日 May 24, 2024
運用期間 1.7 years
タイプ internet

技術仕様

分類 Payload
質量 730.00 kg
乾燥質量 700.00 kg
総質量 730.00 kg
長さ 0.30 m
直径 4.10 m
スパン 29.00 m
形状 Box + pan
製造者 SPXS
バスタイプ Starlink V2M
フェーズステータス In Orbit
所有者/国 SPXS/US

大規模コンステレーション

Loading constellations...